Time,TemperatureF,DewpointF,PressureIn,WindDirection,WindDirectionDegrees,WindSpeedMPH,WindSpeedGustMPH,Humidity,HourlyPrecipIn,Conditions,Clouds,dailyrainin,SoftwareType,DateUTC
2013-09-23 00:01:00,50.5,50.0,30.01,SW,225,0.0,0.0,97,0.00,,,0.00,Rainwise IP-100,2013-09-23 04:01:00,
2013-09-23 00:06:00,50.5,50.0,30.01,SW,225,0.0,0.0,97,0.00,,,0.00,Rainwise IP-100,2013-09-23 04:06:00,
2013-09-23 00:11:00,50.5,50.0,30.01,SW,225,0.0,0.0,97,0.00,,,0.00,Rainwise IP-100,2013-09-23 04:11:00,
2013-09-23 00:16:00,50.5,50.0,30.01,SW,225,0.0,0.0,97,0.00,,,0.00,Rainwise IP-100,2013-09-23 04:16:00,
2013-09-23 00:21:00,50.5,50.0,30.01,SW,225,0.0,2.0,97,0.00,,,0.00,Rainwise IP-100,2013-09-23 04:21:00,
2013-09-23 00:26:00,50.4,50.0,30.01,SW,225,0.0,1.0,97,0.00,,,0.00,Rainwise IP-100,2013-09-23 04:26:00,
2013-09-23 00:31:00,50.3,49.0,30.01,SW,225,0.0,1.0,97,0.00,,,0.00,Rainwise IP-100,2013-09-23 04:31:00,
2013-09-23 00:36:00,50.3,49.0,30.01,SW,225,0.0,2.0,97,0.00,,,0.00,Rainwise IP-100,2013-09-23 04:36:00,
2013-09-23 00:41:00,50.2,49.0,30.01,SW,225,0.0,2.0,97,0.00,,,0.00,Rainwise IP-100,2013-09-23 04:41:00,
2013-09-23 00:46:00,50.1,49.0,30.01,SW,225,0.0,0.0,97,0.00,,,0.00,Rainwise IP-100,2013-09-23 04:46:00,
2013-09-23 00:51:00,49.9,49.0,30.01,SW,225,2.0,2.0,97,0.00,,,0.00,Rainwise IP-100,2013-09-23 04:51:00,
2013-09-23 00:56:00,50.0,49.0,30.01,SW,225,0.0,2.0,97,0.00,,,0.00,Rainwise IP-100,2013-09-23 04:56:00,
2013-09-23 01:01:00,50.1,49.0,30.01,SW,225,0.0,0.0,97,0.00,,,0.00,Rainwise IP-100,2013-09-23 05:01:00,
2013-09-23 01:06:00,49.9,49.0,30.01,SW,225,0.0,0.0,97,0.00,,,0.00,Rainwise IP-100,2013-09-23 05:06:00,
2013-09-23 01:11:00,49.9,49.0,30.01,SW,225,2.0,2.0,97,0.00,,,0.00,Rainwise IP-100,2013-09-23 05:11:00,
2013-09-23 01:16:00,49.9,49.0,30.01,SW,225,0.0,2.0,97,0.00,,,0.00,Rainwise IP-100,2013-09-23 05:16:00,
2013-09-23 01:21:00,49.8,49.0,30.01,SW,225,0.0,0.0,97,0.00,,,0.00,Rainwise IP-100,2013-09-23 05:21:00,
2013-09-23 01:26:00,49.8,49.0,30.01,SW,225,0.0,0.0,97,0.00,,,0.00,Rainwise IP-100,2013-09-23 05:26:00,
2013-09-23 01:31:00,49.8,49.0,30.01,SW,225,0.0,0.0,97,0.00,,,0.00,Rainwise IP-100,2013-09-23 05:31:00,
2013-09-23 01:36:00,49.9,49.0,30.01,SW,225,0.0,0.0,97,0.00,,,0.00,Rainwise IP-100,2013-09-23 05:36:00,
2013-09-23 01:41:00,49.9,49.0,30.01,SW,225,2.0,0.0,97,0.00,,,0.00,Rainwise IP-100,2013-09-23 05:41:00,
2013-09-23 01:46:00,49.9,49.0,30.01,SW,225,0.0,2.0,97,0.00,,,0.00,Rainwise IP-100,2013-09-23 05:46:00,
2013-09-23 01:51:00,49.9,49.0,30.01,SW,225,0.0,2.0,97,0.00,,,0.00,Rainwise IP-100,2013-09-23 05:51:00,
2013-09-23 01:56:00,49.9,49.0,30.01,SW,225,0.0,0.0,97,0.00,,,0.00,Rainwise IP-100,2013-09-23 05:56:00,
2013-09-23 02:01:00,49.9,49.0,30.02,SW,225,0.0,0.0,97,0.00,,,0.00,Rainwise IP-100,2013-09-23 06:01:00,
2013-09-23 02:06:00,49.8,49.0,30.02,SW,225,0.0,2.0,97,0.00,,,0.00,Rainwise IP-100,2013-09-23 06:06:00,
2013-09-23 02:11:00,49.8,49.0,30.02,SW,225,0.0,2.0,97,0.00,,,0.00,Rainwise IP-100,2013-09-23 06:11:00,
2013-09-23 02:16:00,49.8,49.0,30.01,SW,225,0.0,0.0,97,0.00,,,0.00,Rainwise IP-100,2013-09-23 06:16:00,
2013-09-23 02:21:00,49.7,49.0,30.01,SW,225,0.0,1.0,97,0.00,,,0.00,Rainwise IP-100,2013-09-23 06:21:00,
2013-09-23 02:26:00,49.7,49.0,30.02,SW,225,0.0,0.0,97,0.00,,,0.00,Rainwise IP-100,2013-09-23 06:26:00,
2013-09-23 02:31:00,49.7,49.0,30.02,SW,225,0.0,0.0,97,0.00,,,0.00,Rainwise IP-100,2013-09-23 06:31:00,
2013-09-23 02:36:00,49.7,49.0,30.02,SW,225,0.0,0.0,97,0.00,,,0.00,Rainwise IP-100,2013-09-23 06:36:00,
2013-09-23 02:41:00,49.7,49.0,30.02,SW,225,0.0,0.0,97,0.00,,,0.00,Rainwise IP-100,2013-09-23 06:41:00,
2013-09-23 02:46:00,49.6,49.0,30.02,SW,225,0.0,0.0,97,0.00,,,0.00,Rainwise IP-100,2013-09-23 06:46:00,
2013-09-23 02:51:00,49.5,49.0,30.02,SW,225,2.0,2.0,97,0.00,,,0.00,Rainwise IP-100,2013-09-23 06:51:00,
2013-09-23 02:56:00,49.5,49.0,30.02,SW,225,0.0,2.0,97,0.00,,,0.00,Rainwise IP-100,2013-09-23 06:56:00,
2013-09-23 03:01:00,49.4,48.0,30.02,SW,225,0.0,2.0,97,0.00,,,0.00,Rainwise IP-100,2013-09-23 07:01:00,
2013-09-23 03:06:00,49.3,48.0,30.02,SW,225,0.0,1.0,97,0.00,,,0.00,Rainwise IP-100,2013-09-23 07:06:00,
2013-09-23 03:11:00,49.3,48.0,30.02,SW,225,0.0,0.0,97,0.00,,,0.00,Rainwise IP-100,2013-09-23 07:11:00,
2013-09-23 03:16:00,49.2,48.0,30.02,SW,225,0.0,2.0,97,0.00,,,0.00,Rainwise IP-100,2013-09-23 07:16:00,
2013-09-23 03:21:00,49.2,48.0,30.02,SW,225,0.0,2.0,96,0.00,,,0.00,Rainwise IP-100,2013-09-23 07:21:00,
2013-09-23 03:26:00,49.2,48.0,30.02,SW,225,0.0,0.0,96,0.00,,,0.00,Rainwise IP-100,2013-09-23 07:26:00,
2013-09-23 03:31:00,49.1,48.0,30.02,SW,225,0.0,1.0,97,0.00,,,0.00,Rainwise IP-100,2013-09-23 07:31:00,
2013-09-23 03:36:00,48.9,48.0,30.02,SW,225,1.0,0.0,96,0.00,,,0.00,Rainwise IP-100,2013-09-23 07:36:00,
2013-09-23 03:41:00,48.9,47.0,30.02,SW,225,0.0,1.0,95,0.00,,,0.00,Rainwise IP-100,2013-09-23 07:41:00,
2013-09-23 03:46:00,48.9,47.0,30.02,SW,225,0.0,0.0,95,0.00,,,0.00,Rainwise IP-100,2013-09-23 07:46:00,
2013-09-23 03:51:00,48.8,47.0,30.02,SW,225,0.0,0.0,95,0.00,,,0.00,Rainwise IP-100,2013-09-23 07:51:00,
2013-09-23 03:56:00,48.7,47.0,30.02,SW,225,0.0,2.0,93,0.00,,,0.00,Rainwise IP-100,2013-09-23 07:56:00,
2013-09-23 04:01:00,48.8,47.0,30.02,SSW,202,0.0,6.0,91,0.00,,,0.00,Rainwise IP-100,2013-09-23 08:01:00,
2013-09-23 04:06:00,48.8,47.0,30.03,SSW,202,0.0,2.0,90,0.00,,,0.00,Rainwise IP-100,2013-09-23 08:06:00,
2013-09-23 04:11:00,48.8,47.0,30.03,SSW,202,0.0,0.0,90,0.00,,,0.00,Rainwise IP-100,2013-09-23 08:11:00,
2013-09-23 04:16:00,48.8,46.0,30.03,SW,225,1.0,0.0,89,0.00,,,0.00,Rainwise IP-100,2013-09-23 08:16:00,
2013-09-23 04:21:00,48.8,46.0,30.02,SW,225,0.0,2.0,89,0.00,,,0.00,Rainwise IP-100,2013-09-23 08:21:00,
2013-09-23 04:26:00,48.8,46.0,30.03,SW,225,0.0,0.0,88,0.00,,,0.00,Rainwise IP-100,2013-09-23 08:26:00,
2013-09-23 04:31:00,48.7,46.0,30.03,SW,225,0.0,0.0,89,0.00,,,0.00,Rainwise IP-100,2013-09-23 08:31:00,
2013-09-23 04:36:00,48.7,46.0,30.03,SW,225,0.0,0.0,88,0.00,,,0.00,Rainwise IP-100,2013-09-23 08:36:00,
2013-09-23 04:41:00,48.6,47.0,30.03,SW,225,0.0,0.0,90,0.00,,,0.00,Rainwise IP-100,2013-09-23 08:41:00,
2013-09-23 04:46:00,48.6,46.0,30.03,SW,225,0.0,0.0,88,0.00,,,0.00,Rainwise IP-100,2013-09-23 08:46:00,
2013-09-23 04:51:00,48.6,46.0,30.03,SW,225,0.0,0.0,88,0.00,,,0.00,Rainwise IP-100,2013-09-23 08:51:00,
2013-09-23 04:56:00,48.6,46.0,30.03,SW,225,0.0,1.0,89,0.00,,,0.00,Rainwise IP-100,2013-09-23 08:56:00,
2013-09-23 05:01:00,48.6,46.0,30.03,SW,225,0.0,0.0,88,0.00,,,0.00,Rainwise IP-100,2013-09-23 09:01:00,
2013-09-23 05:06:00,48.6,46.0,30.03,SW,225,0.0,0.0,88,0.00,,,0.00,Rainwise IP-100,2013-09-23 09:06:00,
2013-09-23 05:11:00,48.6,45.0,30.03,SW,225,0.0,1.0,87,0.00,,,0.00,Rainwise IP-100,2013-09-23 09:11:00,
2013-09-23 05:16:00,48.6,46.0,30.04,SW,225,0.0,0.0,88,0.00,,,0.00,Rainwise IP-100,2013-09-23 09:16:00,
2013-09-23 05:21:00,48.6,47.0,30.04,SW,225,0.0,0.0,91,0.00,,,0.00,Rainwise IP-100,2013-09-23 09:21:00,
2013-09-23 05:26:00,48.5,47.0,30.04,SW,225,0.0,0.0,93,0.00,,,0.00,Rainwise IP-100,2013-09-23 09:26:00,
2013-09-23 05:31:00,48.3,47.0,30.04,SW,225,0.0,0.0,94,0.00,,,0.00,Rainwise IP-100,2013-09-23 09:31:00,
2013-09-23 05:36:00,48.2,47.0,30.04,SW,225,0.0,1.0,93,0.00,,,0.00,Rainwise IP-100,2013-09-23 09:36:00,
2013-09-23 05:41:00,48.1,47.0,30.04,SW,225,0.0,0.0,94,0.00,,,0.00,Rainwise IP-100,2013-09-23 09:41:00,
2013-09-23 05:46:00,48.2,47.0,30.04,SW,225,0.0,0.0,95,0.00,,,0.00,Rainwise IP-100,2013-09-23 09:46:00,
2013-09-23 05:51:00,48.2,47.0,30.04,SW,225,0.0,0.0,96,0.00,,,0.00,Rainwise IP-100,2013-09-23 09:51:00,
2013-09-23 05:56:00,48.2,47.0,30.04,SW,225,0.0,0.0,97,0.00,,,0.00,Rainwise IP-100,2013-09-23 09:56:00,
2013-09-23 06:01:00,48.2,47.0,30.04,SW,225,0.0,0.0,97,0.00,,,0.00,Rainwise IP-100,2013-09-23 10:01:00,
2013-09-23 06:06:00,48.2,47.0,30.05,SW,225,0.0,0.0,97,0.00,,,0.00,Rainwise IP-100,2013-09-23 10:06:00,
2013-09-23 06:11:00,48.1,47.0,30.04,SW,225,0.0,0.0,97,0.00,,,0.00,Rainwise IP-100,2013-09-23 10:11:00,
2013-09-23 06:16:00,48.0,47.0,30.05,SW,225,0.0,0.0,97,0.00,,,0.00,Rainwise IP-100,2013-09-23 10:16:00,
2013-09-23 06:21:00,47.9,47.0,30.05,SW,225,0.0,0.0,97,0.00,,,0.00,Rainwise IP-100,2013-09-23 10:21:00,
2013-09-23 06:26:00,47.9,47.0,30.05,SW,225,0.0,0.0,97,0.00,,,0.00,Rainwise IP-100,2013-09-23 10:26:00,
2013-09-23 06:31:00,47.9,47.0,30.05,SW,225,0.0,0.0,97,0.00,,,0.00,Rainwise IP-100,2013-09-23 10:31:00,
2013-09-23 06:36:00,47.8,47.0,30.05,SW,225,0.0,0.0,97,0.00,,,0.00,Rainwise IP-100,2013-09-23 10:36:00,
2013-09-23 06:41:00,47.8,47.0,30.05,SW,225,0.0,0.0,97,0.00,,,0.00,Rainwise IP-100,2013-09-23 10:41:00,
2013-09-23 06:46:00,47.8,47.0,30.05,SW,225,0.0,0.0,97,0.00,,,0.00,Rainwise IP-100,2013-09-23 10:46:00,
2013-09-23 06:51:00,47.9,47.0,30.06,SW,225,0.0,3.0,97,0.00,,,0.00,Rainwise IP-100,2013-09-23 10:51:00,
2013-09-23 06:56:00,47.9,47.0,30.06,SW,225,0.0,0.0,97,0.00,,,0.00,Rainwise IP-100,2013-09-23 10:56:00,
2013-09-23 07:01:00,47.9,47.0,30.06,SW,225,0.0,0.0,97,0.00,,,0.00,Rainwise IP-100,2013-09-23 11:01:00,
2013-09-23 07:06:00,47.9,47.0,30.06,SW,225,0.0,2.0,97,0.00,,,0.00,Rainwise IP-100,2013-09-23 11:06:00,
2013-09-23 07:11:00,47.9,47.0,30.06,SW,225,0.0,0.0,97,0.00,,,0.00,Rainwise IP-100,2013-09-23 11:11:00,
2013-09-23 07:16:00,47.9,47.0,30.06,SW,225,0.0,0.0,97,0.00,,,0.00,Rainwise IP-100,2013-09-23 11:16:00,
2013-09-23 07:21:00,47.9,47.0,30.06,SW,225,0.0,0.0,97,0.00,,,0.00,Rainwise IP-100,2013-09-23 11:21:00,
2013-09-23 07:26:00,47.8,47.0,30.07,South,180,2.0,3.0,97,0.00,,,0.00,Rainwise IP-100,2013-09-23 11:26:00,
2013-09-23 07:31:00,47.8,47.0,30.07,South,180,1.0,2.0,97,0.00,,,0.00,Rainwise IP-100,2013-09-23 11:31:00,
2013-09-23 07:36:00,47.9,47.0,30.07,South,180,2.0,2.0,97,0.00,,,0.00,Rainwise IP-100,2013-09-23 11:36:00,
2013-09-23 07:41:00,47.9,47.0,30.07,South,180,0.0,2.0,97,0.00,,,0.00,Rainwise IP-100,2013-09-23 11:41:00,
2013-09-23 07:46:00,47.9,47.0,30.08,South,180,0.0,0.0,97,0.00,,,0.00,Rainwise IP-100,2013-09-23 11:46:00,
2013-09-23 07:51:00,47.9,47.0,30.08,South,180,0.0,2.0,97,0.00,,,0.00,Rainwise IP-100,2013-09-23 11:51:00,
2013-09-23 07:56:00,47.9,47.0,30.08,South,180,0.0,2.0,97,0.00,,,0.00,Rainwise IP-100,2013-09-23 11:56:00,
2013-09-23 08:01:00,48.1,47.0,30.08,South,180,0.0,2.0,97,0.00,,,0.00,Rainwise IP-100,2013-09-23 12:01:00,
2013-09-23 08:06:00,48.2,47.0,30.08,South,180,0.0,0.0,96,0.00,,,0.00,Rainwise IP-100,2013-09-23 12:06:00,
2013-09-23 08:11:00,48.2,47.0,30.08,South,180,0.0,2.0,95,0.00,,,0.00,Rainwise IP-100,2013-09-23 12:11:00,
2013-09-23 08:16:00,48.2,46.0,30.09,SSW,202,0.0,2.0,92,0.00,,,0.00,Rainwise IP-100,2013-09-23 12:16:00,
2013-09-23 08:21:00,48.2,46.0,30.09,SSW,202,2.0,2.0,92,0.00,,,0.00,Rainwise IP-100,2013-09-23 12:21:00,
2013-09-23 08:26:00,48.2,45.0,30.09,South,180,1.0,2.0,89,0.00,,,0.00,Rainwise IP-100,2013-09-23 12:26:00,
2013-09-23 08:31:00,48.2,45.0,30.09,South,180,0.0,2.0,87,0.00,,,0.00,Rainwise IP-100,2013-09-23 12:31:00,
2013-09-23 08:36:00,48.2,45.0,30.09,South,180,0.0,1.0,88,0.00,,,0.00,Rainwise IP-100,2013-09-23 12:36:00,
2013-09-23 08:41:00,48.2,44.0,30.09,SW,225,0.0,2.0,86,0.00,,,0.00,Rainwise IP-100,2013-09-23 12:41:00,
2013-09-23 08:46:00,48.1,44.0,30.09,SW,225,0.0,2.0,86,0.00,,,0.00,Rainwise IP-100,2013-09-23 12:46:00,
2013-09-23 08:51:00,48.1,45.0,30.09,SW,225,0.0,1.0,88,0.00,,,0.00,Rainwise IP-100,2013-09-23 12:51:00,
2013-09-23 08:56:00,48.1,44.0,30.10,SW,225,0.0,4.0,86,0.00,,,0.00,Rainwise IP-100,2013-09-23 12:56:00,
2013-09-23 09:01:00,48.1,45.0,30.10,SW,225,0.0,0.0,87,0.00,,,0.00,Rainwise IP-100,2013-09-23 13:01:00,
2013-09-23 09:06:00,48.1,44.0,30.11,SW,225,0.0,2.0,86,0.00,,,0.00,Rainwise IP-100,2013-09-23 13:06:00,
2013-09-23 09:11:00,48.2,45.0,30.10,SW,225,0.0,2.0,87,0.00,,,0.00,Rainwise IP-100,2013-09-23 13:11:00,
2013-09-23 09:16:00,48.2,44.0,30.11,SSW,202,0.0,2.0,86,0.00,,,0.00,Rainwise IP-100,2013-09-23 13:16:00,
2013-09-23 09:21:00,48.2,44.0,30.10,SSW,202,0.0,0.0,86,0.00,,,0.00,Rainwise IP-100,2013-09-23 13:21:00,
2013-09-23 09:26:00,48.3,45.0,30.10,SSW,202,0.0,0.0,87,0.00,,,0.00,Rainwise IP-100,2013-09-23 13:26:00,
2013-09-23 09:31:00,48.4,44.0,30.10,SSW,202,0.0,2.0,84,0.00,,,0.00,Rainwise IP-100,2013-09-23 13:31:00,
2013-09-23 09:36:00,48.4,44.0,30.11,SSW,202,0.0,2.0,84,0.00,,,0.00,Rainwise IP-100,2013-09-23 13:36:00,
2013-09-23 09:41:00,48.3,43.0,30.11,South,180,1.0,2.0,83,0.00,,,0.00,Rainwise IP-100,2013-09-23 13:41:00,
2013-09-23 09:46:00,48.2,43.0,30.11,SE,135,1.0,2.0,83,0.00,,,0.00,Rainwise IP-100,2013-09-23 13:46:00,
2013-09-23 09:51:00,48.2,44.0,30.11,East,90,0.0,4.0,84,0.00,,,0.00,Rainwise IP-100,2013-09-23 13:51:00,
2013-09-23 09:56:00,48.3,45.0,30.11,East,90,0.0,1.0,87,0.00,,,0.00,Rainwise IP-100,2013-09-23 13:56:00,
2013-09-23 10:01:00,48.5,46.0,30.11,East,90,0.0,0.0,88,0.00,,,0.00,Rainwise IP-100,2013-09-23 14:01:00,
2013-09-23 10:06:00,48.7,45.0,30.11,SW,225,2.0,0.0,87,0.00,,,0.00,Rainwise IP-100,2013-09-23 14:06:00,
2013-09-23 10:11:00,48.7,45.0,30.11,SSW,202,0.0,2.0,86,0.00,,,0.00,Rainwise IP-100,2013-09-23 14:11:00,
2013-09-23 10:16:00,48.6,45.0,30.11,SSW,202,0.0,0.0,87,0.00,,,0.00,Rainwise IP-100,2013-09-23 14:16:00,
2013-09-23 10:21:00,48.7,45.0,30.11,SSW,202,0.0,2.0,87,0.00,,,0.00,Rainwise IP-100,2013-09-23 14:21:00,
2013-09-23 10:26:00,48.7,45.0,30.11,SSW,202,0.0,2.0,86,0.00,,,0.00,Rainwise IP-100,2013-09-23 14:26:00,
2013-09-23 10:31:00,48.8,45.0,30.11,SSW,202,0.0,0.0,85,0.00,,,0.00,Rainwise IP-100,2013-09-23 14:31:00,
2013-09-23 10:36:00,48.7,45.0,30.11,SW,225,0.0,2.0,87,0.00,,,0.00,Rainwise IP-100,2013-09-23 14:36:00,
2013-09-23 10:41:00,48.7,45.0,30.11,SW,225,0.0,2.0,86,0.00,,,0.00,Rainwise IP-100,2013-09-23 14:41:00,
2013-09-23 10:46:00,48.9,45.0,30.11,SW,225,0.0,1.0,86,0.00,,,0.00,Rainwise IP-100,2013-09-23 14:46:00,
2013-09-23 10:51:00,49.1,45.0,30.12,SW,225,0.0,2.0,85,0.00,,,0.00,Rainwise IP-100,2013-09-23 14:51:00,
2013-09-23 10:56:00,49.2,44.0,30.12,SW,225,0.0,2.0,84,0.00,,,0.00,Rainwise IP-100,2013-09-23 14:56:00,
2013-09-23 11:01:00,49.3,44.0,30.12,SW,225,2.0,2.0,83,0.00,,,0.00,Rainwise IP-100,2013-09-23 15:01:00,
2013-09-23 11:06:00,49.3,44.0,30.12,SW,225,1.0,2.0,83,0.00,,,0.00,Rainwise IP-100,2013-09-23 15:06:00,
2013-09-23 11:11:00,49.5,45.0,30.12,SW,225,0.0,2.0,83,0.00,,,0.00,Rainwise IP-100,2013-09-23 15:11:00,
2013-09-23 11:16:00,49.7,45.0,30.12,SW,225,0.0,1.0,82,0.00,,,0.00,Rainwise IP-100,2013-09-23 15:16:00,
2013-09-23 11:21:00,49.9,44.0,30.12,South,180,0.0,2.0,80,0.00,,,0.00,Rainwise IP-100,2013-09-23 15:21:00,
2013-09-23 11:26:00,50.2,45.0,30.13,South,180,0.0,0.0,83,0.00,,,0.00,Rainwise IP-100,2013-09-23 15:26:00,
2013-09-23 11:31:00,50.2,45.0,30.13,South,180,0.0,0.0,84,0.00,,,0.00,Rainwise IP-100,2013-09-23 15:31:00,
2013-09-23 11:36:00,50.2,45.0,30.13,South,180,0.0,0.0,82,0.00,,,0.00,Rainwise IP-100,2013-09-23 15:36:00,
2013-09-23 11:41:00,50.1,44.0,30.13,South,180,0.0,0.0,80,0.00,,,0.00,Rainwise IP-100,2013-09-23 15:41:00,
2013-09-23 11:46:00,50.2,45.0,30.13,South,180,0.0,2.0,82,0.00,,,0.00,Rainwise IP-100,2013-09-23 15:46:00,
2013-09-23 11:51:00,50.4,45.0,30.13,ENE,67,2.0,0.0,80,0.00,,,0.00,Rainwise IP-100,2013-09-23 15:51:00,
2013-09-23 11:56:00,50.5,45.0,30.13,ENE,67,0.0,2.0,80,0.00,,,0.00,Rainwise IP-100,2013-09-23 15:56:00,
2013-09-23 12:01:00,50.8,45.0,30.13,ENE,67,0.0,2.0,80,0.00,,,0.00,Rainwise IP-100,2013-09-23 16:01:00,
2013-09-23 12:06:00,50.9,45.0,30.13,NE,45,1.0,2.0,78,0.00,,,0.00,Rainwise IP-100,2013-09-23 16:06:00,
2013-09-23 12:11:00,50.9,45.0,30.13,NE,45,0.0,1.0,79,0.00,,,0.00,Rainwise IP-100,2013-09-23 16:11:00,
2013-09-23 12:16:00,51.1,44.0,30.13,SW,225,0.0,2.0,77,0.00,,,0.00,Rainwise IP-100,2013-09-23 16:16:00,
2013-09-23 12:21:00,51.6,45.0,30.13,ENE,67,2.0,2.0,77,0.00,,,0.00,Rainwise IP-100,2013-09-23 16:21:00,
2013-09-23 12:26:00,51.8,45.0,30.13,East,90,0.0,2.0,78,0.00,,,0.00,Rainwise IP-100,2013-09-23 16:26:00,
2013-09-23 12:31:00,51.9,44.0,30.13,SSW,202,1.0,2.0,74,0.00,,,0.00,Rainwise IP-100,2013-09-23 16:31:00,
2013-09-23 12:36:00,52.1,45.0,30.13,WSW,247,0.0,2.0,76,0.00,,,0.00,Rainwise IP-100,2013-09-23 16:36:00,
2013-09-23 12:41:00,52.3,45.0,30.13,SW,225,0.0,2.0,77,0.00,,,0.00,Rainwise IP-100,2013-09-23 16:41:00,
2013-09-23 12:46:00,52.7,46.0,30.13,SSW,202,1.0,1.0,78,0.00,,,0.00,Rainwise IP-100,2013-09-23 16:46:00,
2013-09-23 12:51:00,52.8,47.0,30.13,NW,315,2.0,2.0,79,0.00,,,0.00,Rainwise IP-100,2013-09-23 16:51:00,
2013-09-23 12:56:00,52.2,43.0,30.13,SW,225,2.0,4.0,73,0.00,,,0.00,Rainwise IP-100,2013-09-23 16:56:00,
2013-09-23 13:01:00,52.4,45.0,30.13,SW,225,0.0,2.0,77,0.00,,,0.00,Rainwise IP-100,2013-09-23 17:01:00,
2013-09-23 13:06:00,53.0,45.0,30.13,South,180,0.0,2.0,74,0.00,,,0.00,Rainwise IP-100,2013-09-23 17:06:00,
2013-09-23 13:11:00,53.1,45.0,30.13,West,270,1.0,2.0,75,0.00,,,0.00,Rainwise IP-100,2013-09-23 17:11:00,
2013-09-23 13:16:00,52.9,45.0,30.13,SW,225,0.0,2.0,76,0.00,,,0.00,Rainwise IP-100,2013-09-23 17:16:00,
2013-09-23 13:21:00,52.9,46.0,30.13,SW,225,0.0,1.0,77,0.00,,,0.00,Rainwise IP-100,2013-09-23 17:21:00,
2013-09-23 13:26:00,53.1,45.0,30.13,SW,225,1.0,2.0,76,0.00,,,0.00,Rainwise IP-100,2013-09-23 17:26:00,
2013-09-23 13:31:00,53.3,44.0,30.12,SW,225,0.0,2.0,72,0.00,,,0.00,Rainwise IP-100,2013-09-23 17:31:00,
2013-09-23 13:36:00,53.6,44.0,30.12,WSW,247,0.0,1.0,71,0.00,,,0.00,Rainwise IP-100,2013-09-23 17:36:00,
2013-09-23 13:41:00,53.9,45.0,30.12,WNW,292,0.0,2.0,72,0.00,,,0.00,Rainwise IP-100,2013-09-23 17:41:00,
2013-09-23 13:46:00,54.0,44.0,30.12,North,360,0.0,2.0,70,0.00,,,0.00,Rainwise IP-100,2013-09-23 17:46:00,
2013-09-23 13:51:00,54.4,47.0,30.12,West,270,2.0,2.0,76,0.00,,,0.00,Rainwise IP-100,2013-09-23 17:51:00,
2013-09-23 13:56:00,54.7,47.0,30.12,SW,225,0.0,4.0,75,0.00,,,0.00,Rainwise IP-100,2013-09-23 17:56:00,
2013-09-23 14:01:00,54.8,47.0,30.12,SW,225,0.0,2.0,74,0.00,,,0.00,Rainwise IP-100,2013-09-23 18:01:00,
2013-09-23 14:06:00,54.9,47.0,30.12,SW,225,0.0,1.0,73,0.00,,,0.00,Rainwise IP-100,2013-09-23 18:06:00,
2013-09-23 14:11:00,55.0,47.0,30.12,SW,225,0.0,2.0,75,0.00,,,0.00,Rainwise IP-100,2013-09-23 18:11:00,
2013-09-23 14:16:00,54.7,46.0,30.12,SW,225,2.0,2.0,72,0.00,,,0.00,Rainwise IP-100,2013-09-23 18:16:00,
2013-09-23 14:21:00,54.7,46.0,30.11,WSW,247,1.0,2.0,72,0.00,,,0.00,Rainwise IP-100,2013-09-23 18:21:00,
2013-09-23 14:26:00,54.9,47.0,30.11,NW,315,2.0,2.0,72,0.00,,,0.00,Rainwise IP-100,2013-09-23 18:26:00,
2013-09-23 14:31:00,55.5,47.0,30.11,SE,135,0.0,2.0,71,0.00,,,0.00,Rainwise IP-100,2013-09-23 18:31:00,
2013-09-23 14:36:00,56.5,47.0,30.11,SE,135,0.0,2.0,70,0.00,,,0.00,Rainwise IP-100,2013-09-23 18:36:00,
2013-09-23 14:41:00,56.5,46.0,30.11,East,90,1.0,4.0,67,0.00,,,0.00,Rainwise IP-100,2013-09-23 18:41:00,
2013-09-23 14:46:00,56.3,46.0,30.12,WNW,292,2.0,2.0,68,0.00,,,0.00,Rainwise IP-100,2013-09-23 18:46:00,
2013-09-23 14:50:00,56.3,47.0,30.12,West,270,0.0,3.0,71,0.00,,,0.00,Rainwise IP-100,2013-09-23 18:50:00,
2013-09-23 14:55:00,56.6,47.0,30.12,West,270,0.0,2.0,71,0.00,,,0.00,Rainwise IP-100,2013-09-23 18:55:00,
2013-09-23 15:00:00,57.1,46.0,30.11,East,90,2.0,3.0,66,0.00,,,0.00,Rainwise IP-100,2013-09-23 19:00:00,
2013-09-23 15:05:00,57.1,47.0,30.11,East,90,1.0,2.0,68,0.00,,,0.00,Rainwise IP-100,2013-09-23 19:05:00,
2013-09-23 15:10:00,56.8,46.0,30.11,SSW,202,0.0,2.0,67,0.00,,,0.00,Rainwise IP-100,2013-09-23 19:10:00,
2013-09-23 15:15:00,56.5,47.0,30.11,SW,225,3.0,3.0,69,0.00,,,0.00,Rainwise IP-100,2013-09-23 19:15:00,
2013-09-23 15:20:00,56.3,47.0,30.11,SW,225,0.0,4.0,74,0.00,,,0.00,Rainwise IP-100,2013-09-23 19:20:00,
2013-09-23 15:25:00,56.9,48.0,30.11,West,270,0.0,2.0,72,0.00,,,0.00,Rainwise IP-100,2013-09-23 19:25:00,
2013-09-23 15:30:00,55.9,46.0,30.11,West,270,1.0,2.0,69,0.00,,,0.00,Rainwise IP-100,2013-09-23 19:30:00,
2013-09-23 15:35:00,56.0,47.0,30.11,West,270,1.0,2.0,73,0.00,,,0.00,Rainwise IP-100,2013-09-23 19:35:00,
2013-09-23 15:40:00,56.2,47.0,30.11,WNW,292,2.0,2.0,72,0.00,,,0.00,Rainwise IP-100,2013-09-23 19:40:00,
2013-09-23 15:45:00,56.3,46.0,30.11,WNW,292,0.0,2.0,69,0.00,,,0.00,Rainwise IP-100,2013-09-23 19:45:00,
2013-09-23 15:50:00,56.5,47.0,30.10,NW,315,1.0,0.0,71,0.00,,,0.00,Rainwise IP-100,2013-09-23 19:50:00,
2013-09-23 15:55:00,57.5,48.0,30.10,NW,315,2.0,2.0,70,0.00,,,0.00,Rainwise IP-100,2013-09-23 19:55:00,
2013-09-23 16:00:00,57.5,49.0,30.10,West,270,2.0,4.0,72,0.00,,,0.00,Rainwise IP-100,2013-09-23 20:00:00,
2013-09-23 16:05:00,56.9,47.0,30.11,WSW,247,0.0,4.0,70,0.00,,,0.00,Rainwise IP-100,2013-09-23 20:05:00,
2013-09-23 16:10:00,56.6,48.0,30.11,West,270,1.0,1.0,73,0.00,,,0.00,Rainwise IP-100,2013-09-23 20:10:00,
2013-09-23 16:15:00,56.3,47.0,30.10,West,270,0.0,2.0,71,0.00,,,0.00,Rainwise IP-100,2013-09-23 20:15:00,
2013-09-23 16:20:00,56.3,48.0,30.10,West,270,0.0,2.0,76,0.00,,,0.00,Rainwise IP-100,2013-09-23 20:20:00,
2013-09-23 16:25:00,56.1,47.0,30.10,SW,225,2.0,2.0,72,0.00,,,0.00,Rainwise IP-100,2013-09-23 20:25:00,
2013-09-23 16:30:00,55.6,47.0,30.10,WSW,247,1.0,2.0,72,0.00,,,0.00,Rainwise IP-100,2013-09-23 20:30:00,
2013-09-23 16:35:00,55.6,48.0,30.10,West,270,1.0,3.0,76,0.00,,,0.00,Rainwise IP-100,2013-09-23 20:35:00,
2013-09-23 16:40:00,55.8,49.0,30.10,West,270,2.0,2.0,77,0.00,,,0.00,Rainwise IP-100,2013-09-23 20:40:00,
2013-09-23 16:45:00,55.8,48.0,30.10,WSW,247,0.0,3.0,76,0.00,,,0.00,Rainwise IP-100,2013-09-23 20:45:00,
2013-09-23 16:50:00,55.8,47.0,30.10,SW,225,0.0,2.0,71,0.00,,,0.00,Rainwise IP-100,2013-09-23 20:50:00,
2013-09-23 16:55:00,55.6,47.0,30.10,SW,225,0.0,2.0,73,0.00,,,0.00,Rainwise IP-100,2013-09-23 20:55:00,
2013-09-23 17:00:00,55.1,47.0,30.10,SW,225,0.0,2.0,75,0.00,,,0.00,Rainwise IP-100,2013-09-23 21:00:00,
2013-09-23 17:05:00,54.9,47.0,30.10,SW,225,1.0,2.0,74,0.00,,,0.00,Rainwise IP-100,2013-09-23 21:05:00,
2013-09-23 17:10:00,54.7,47.0,30.11,SW,225,0.0,2.0,77,0.00,,,0.00,Rainwise IP-100,2013-09-23 21:10:00,
2013-09-23 17:15:00,54.5,47.0,30.10,SW,225,0.0,2.0,76,0.00,,,0.00,Rainwise IP-100,2013-09-23 21:15:00,
2013-09-23 17:20:00,54.3,47.0,30.10,East,90,0.0,2.0,78,0.00,,,0.00,Rainwise IP-100,2013-09-23 21:20:00,
2013-09-23 17:25:00,54.1,47.0,30.11,East,90,0.0,0.0,76,0.00,,,0.00,Rainwise IP-100,2013-09-23 21:25:00,
2013-09-23 17:30:00,54.1,47.0,30.10,West,270,0.0,2.0,77,0.00,,,0.00,Rainwise IP-100,2013-09-23 21:30:00,
2013-09-23 17:35:00,53.9,47.0,30.11,West,270,2.0,2.0,76,0.00,,,0.00,Rainwise IP-100,2013-09-23 21:35:00,
2013-09-23 17:40:00,53.8,47.0,30.10,SW,225,0.0,3.0,77,0.00,,,0.00,Rainwise IP-100,2013-09-23 21:40:00,
2013-09-23 17:45:00,53.6,47.0,30.10,WNW,292,1.0,2.0,78,0.00,,,0.00,Rainwise IP-100,2013-09-23 21:45:00,
2013-09-23 17:50:00,53.2,47.0,30.10,WSW,247,0.0,2.0,80,0.00,,,0.00,Rainwise IP-100,2013-09-23 21:50:00,
2013-09-23 17:55:00,52.9,47.0,30.10,WSW,247,0.0,2.0,80,0.00,,,0.00,Rainwise IP-100,2013-09-23 21:55:00,
2013-09-23 18:00:00,52.9,47.0,30.10,SW,225,0.0,2.0,80,0.00,,,0.00,Rainwise IP-100,2013-09-23 22:00:00,
2013-09-23 18:05:00,52.9,48.0,30.10,SW,225,0.0,0.0,84,0.00,,,0.00,Rainwise IP-100,2013-09-23 22:05:00,
2013-09-23 18:10:00,52.9,47.0,30.10,SW,225,2.0,0.0,81,0.00,,,0.00,Rainwise IP-100,2013-09-23 22:10:00,
2013-09-23 18:15:00,52.7,47.0,30.10,SW,225,0.0,2.0,83,0.00,,,0.00,Rainwise IP-100,2013-09-23 22:15:00,
2013-09-23 18:20:00,52.3,47.0,30.10,SW,225,0.0,2.0,85,0.00,,,0.00,Rainwise IP-100,2013-09-23 22:20:00,
2013-09-23 18:25:00,51.9,47.0,30.10,SW,225,0.0,2.0,85,0.00,,,0.00,Rainwise IP-100,2013-09-23 22:25:00,
2013-09-23 18:30:00,51.7,48.0,30.10,SW,225,0.0,2.0,86,0.00,,,0.00,Rainwise IP-100,2013-09-23 22:30:00,
2013-09-23 18:35:00,51.4,47.0,30.10,SW,225,0.0,2.0,88,0.00,,,0.00,Rainwise IP-100,2013-09-23 22:35:00,
2013-09-23 18:40:00,50.9,48.0,30.10,SW,225,0.0,0.0,90,0.00,,,0.00,Rainwise IP-100,2013-09-23 22:40:00,
2013-09-23 18:45:00,50.6,47.0,30.10,SW,225,0.0,0.0,90,0.00,,,0.00,Rainwise IP-100,2013-09-23 22:45:00,
2013-09-23 18:50:00,50.2,47.0,30.10,SW,225,0.0,0.0,91,0.00,,,0.00,Rainwise IP-100,2013-09-23 22:50:00,
2013-09-23 18:55:00,49.8,47.0,30.09,SW,225,0.0,0.0,92,0.00,,,0.00,Rainwise IP-100,2013-09-23 22:55:00,
2013-09-23 19:00:00,49.3,47.0,30.09,SW,225,0.0,0.0,92,0.00,,,0.00,Rainwise IP-100,2013-09-23 23:00:00,
2013-09-23 19:05:00,48.8,47.0,30.09,SW,225,0.0,0.0,94,0.00,,,0.00,Rainwise IP-100,2013-09-23 23:05:00,
2013-09-23 19:10:00,48.4,47.0,30.09,SW,225,0.0,0.0,96,0.00,,,0.00,Rainwise IP-100,2013-09-23 23:10:00,
2013-09-23 19:15:00,47.9,47.0,30.09,SW,225,0.0,0.0,95,0.00,,,0.00,Rainwise IP-100,2013-09-23 23:15:00,
2013-09-23 19:20:00,47.5,46.0,30.09,SW,225,0.0,0.0,94,0.00,,,0.00,Rainwise IP-100,2013-09-23 23:20:00,
2013-09-23 19:25:00,47.1,45.0,30.09,SW,225,0.0,0.0,94,0.00,,,0.00,Rainwise IP-100,2013-09-23 23:25:00,
2013-09-23 19:30:00,46.7,46.0,30.09,SW,225,0.0,0.0,96,0.00,,,0.00,Rainwise IP-100,2013-09-23 23:30:00,
2013-09-23 19:35:00,46.3,45.0,30.09,SW,225,0.0,0.0,96,0.00,,,0.00,Rainwise IP-100,2013-09-23 23:35:00,
2013-09-23 19:40:00,45.9,45.0,30.09,SW,225,0.0,0.0,97,0.00,,,0.00,Rainwise IP-100,2013-09-23 23:40:00,
2013-09-23 19:45:00,45.5,45.0,30.09,SW,225,0.0,0.0,97,0.00,,,0.00,Rainwise IP-100,2013-09-23 23:45:00,
2013-09-23 19:50:00,45.2,44.0,30.09,SW,225,0.0,0.0,97,0.00,,,0.00,Rainwise IP-100,2013-09-23 23:50:00,
2013-09-23 19:56:00,44.8,44.0,30.09,SW,225,0.0,0.0,96,0.00,,,0.00,Rainwise IP-100,2013-09-23 23:56:00,
2013-09-23 20:01:00,44.4,43.0,30.09,SW,225,0.0,0.0,96,0.00,,,0.00,Rainwise IP-100,2013-09-24 00:01:00,
2013-09-23 20:06:00,44.1,43.0,30.09,SW,225,0.0,0.0,96,0.00,,,0.00,Rainwise IP-100,2013-09-24 00:06:00,
2013-09-23 20:11:00,43.9,43.0,30.09,SW,225,0.0,0.0,96,0.00,,,0.00,Rainwise IP-100,2013-09-24 00:11:00,
2013-09-23 20:16:00,43.6,43.0,30.10,SW,225,0.0,0.0,96,0.00,,,0.00,Rainwise IP-100,2013-09-24 00:16:00,
2013-09-23 20:21:00,43.4,42.0,30.09,SW,225,0.0,0.0,96,0.00,,,0.00,Rainwise IP-100,2013-09-24 00:21:00,
2013-09-23 20:26:00,43.2,42.0,30.09,SW,225,0.0,0.0,96,0.00,,,0.00,Rainwise IP-100,2013-09-24 00:26:00,
2013-09-23 20:31:00,42.9,42.0,30.09,SW,225,0.0,0.0,96,0.00,,,0.00,Rainwise IP-100,2013-09-24 00:31:00,
2013-09-23 20:36:00,42.7,42.0,30.09,SW,225,0.0,0.0,96,0.00,,,0.00,Rainwise IP-100,2013-09-24 00:36:00,
2013-09-23 20:41:00,42.4,41.0,30.10,SW,225,0.0,0.0,96,0.00,,,0.00,Rainwise IP-100,2013-09-24 00:41:00,
2013-09-23 20:46:00,42.2,41.0,30.10,SW,225,0.0,0.0,96,0.00,,,0.00,Rainwise IP-100,2013-09-24 00:46:00,
2013-09-23 20:51:00,41.9,41.0,30.10,SW,225,0.0,0.0,96,0.00,,,0.00,Rainwise IP-100,2013-09-24 00:51:00,
2013-09-23 20:56:00,41.8,41.0,30.10,SW,225,0.0,0.0,96,0.00,,,0.00,Rainwise IP-100,2013-09-24 00:56:00,
2013-09-23 21:01:00,41.6,41.0,30.10,SW,225,0.0,0.0,96,0.00,,,0.00,Rainwise IP-100,2013-09-24 01:01:00,
2013-09-23 21:06:00,41.5,41.0,30.09,SW,225,0.0,0.0,96,0.00,,,0.00,Rainwise IP-100,2013-09-24 01:06:00,
2013-09-23 21:11:00,41.3,40.0,30.09,SW,225,0.0,0.0,96,0.00,,,0.00,Rainwise IP-100,2013-09-24 01:11:00,
2013-09-23 21:16:00,41.2,40.0,30.09,SW,225,0.0,0.0,96,0.00,,,0.00,Rainwise IP-100,2013-09-24 01:16:00,
2013-09-23 21:21:00,40.9,40.0,30.09,SW,225,0.0,0.0,96,0.00,,,0.00,Rainwise IP-100,2013-09-24 01:21:00,
2013-09-23 21:26:00,40.8,40.0,30.09,SW,225,0.0,0.0,96,0.00,,,0.00,Rainwise IP-100,2013-09-24 01:26:00,
2013-09-23 21:31:00,40.6,40.0,30.09,SW,225,0.0,0.0,96,0.00,,,0.00,Rainwise IP-100,2013-09-24 01:31:00,
2013-09-23 21:36:00,40.4,39.0,30.09,SW,225,0.0,0.0,96,0.00,,,0.00,Rainwise IP-100,2013-09-24 01:36:00,
2013-09-23 21:41:00,40.3,39.0,30.09,SW,225,0.0,0.0,96,0.00,,,0.00,Rainwise IP-100,2013-09-24 01:41:00,
2013-09-23 21:46:00,40.1,39.0,30.09,SW,225,0.0,0.0,96,0.00,,,0.00,Rainwise IP-100,2013-09-24 01:46:00,
2013-09-23 21:51:00,39.9,39.0,30.09,SW,225,0.0,0.0,96,0.00,,,0.00,Rainwise IP-100,2013-09-24 01:51:00,
2013-09-23 21:56:00,39.9,39.0,30.09,SW,225,0.0,0.0,96,0.00,,,0.00,Rainwise IP-100,2013-09-24 01:56:00,
2013-09-23 22:01:00,39.8,39.0,30.09,SW,225,0.0,0.0,96,0.00,,,0.00,Rainwise IP-100,2013-09-24 02:01:00,
2013-09-23 22:06:00,39.6,39.0,30.09,SW,225,0.0,0.0,96,0.00,,,0.00,Rainwise IP-100,2013-09-24 02:06:00,
2013-09-23 22:11:00,39.4,38.0,30.09,SW,225,0.0,0.0,96,0.00,,,0.00,Rainwise IP-100,2013-09-24 02:11:00,
2013-09-23 22:16:00,39.4,38.0,30.09,SW,225,0.0,0.0,96,0.00,,,0.00,Rainwise IP-100,2013-09-24 02:16:00,
2013-09-23 22:21:00,39.2,38.0,30.09,SW,225,0.0,0.0,96,0.00,,,0.00,Rainwise IP-100,2013-09-24 02:21:00,
2013-09-23 22:26:00,39.0,38.0,30.09,SW,225,0.0,0.0,96,0.00,,,0.00,Rainwise IP-100,2013-09-24 02:26:00,
2013-09-23 22:31:00,38.9,38.0,30.09,SW,225,0.0,0.0,96,0.00,,,0.00,Rainwise IP-100,2013-09-24 02:31:00,
2013-09-23 22:36:00,38.8,38.0,30.09,SW,225,0.0,0.0,96,0.00,,,0.00,Rainwise IP-100,2013-09-24 02:36:00,
2013-09-23 22:41:00,38.6,38.0,30.09,SW,225,0.0,0.0,96,0.00,,,0.00,Rainwise IP-100,2013-09-24 02:41:00,
2013-09-23 22:46:00,38.4,37.0,30.09,SW,225,0.0,0.0,96,0.00,,,0.00,Rainwise IP-100,2013-09-24 02:46:00,
2013-09-23 22:51:00,38.3,37.0,30.09,SW,225,0.0,0.0,96,0.00,,,0.00,Rainwise IP-100,2013-09-24 02:51:00,
2013-09-23 22:56:00,38.1,37.0,30.09,SW,225,0.0,0.0,96,0.00,,,0.00,Rainwise IP-100,2013-09-24 02:56:00,
2013-09-23 23:01:00,37.9,37.0,30.09,SW,225,0.0,0.0,95,0.00,,,0.00,Rainwise IP-100,2013-09-24 03:01:00,
2013-09-23 23:06:00,37.8,37.0,30.09,SW,225,0.0,0.0,95,0.00,,,0.00,Rainwise IP-100,2013-09-24 03:06:00,
2013-09-23 23:11:00,37.7,37.0,30.09,SW,225,0.0,0.0,95,0.00,,,0.00,Rainwise IP-100,2013-09-24 03:11:00,
2013-09-23 23:16:00,37.5,37.0,30.09,SW,225,0.0,0.0,95,0.00,,,0.00,Rainwise IP-100,2013-09-24 03:16:00,
2013-09-23 23:21:00,37.5,37.0,30.09,SW,225,0.0,0.0,95,0.00,,,0.00,Rainwise IP-100,2013-09-24 03:21:00,
2013-09-23 23:26:00,37.3,36.0,30.09,SW,225,0.0,0.0,95,0.00,,,0.00,Rainwise IP-100,2013-09-24 03:26:00,
2013-09-23 23:31:00,37.2,36.0,30.09,SW,225,0.0,0.0,95,0.00,,,0.00,Rainwise IP-100,2013-09-24 03:31:00,
2013-09-23 23:36:00,37.1,36.0,30.09,SW,225,0.0,0.0,95,0.00,,,0.00,Rainwise IP-100,2013-09-24 03:36:00,
2013-09-23 23:41:00,36.9,36.0,30.09,SW,225,0.0,0.0,95,0.00,,,0.00,Rainwise IP-100,2013-09-24 03:41:00,
2013-09-23 23:46:00,36.8,36.0,30.09,SW,225,0.0,0.0,95,0.00,,,0.00,Rainwise IP-100,2013-09-24 03:46:00,
2013-09-23 23:51:00,36.7,36.0,30.09,SW,225,0.0,0.0,95,0.00,,,0.00,Rainwise IP-100,2013-09-24 03:51:00,
2013-09-23 23:56:00,36.6,36.0,30.09,SW,225,0.0,0.0,95,0.00,,,0.00,Rainwise IP-100,2013-09-24 03:56:00,